When you browse on this site, cookies collect data to enhance your experience and personalize the content and advertising you see.
Visit our Privacy Policy to learn more. By continuing to use the site, you agree to this use of cookies and data.
  • In Latvia
  • List of Countries
  • For 7 days
  • Water Temperature
  • Weather Map
  • Weather Widgets
  • user-avatar
    Login

    Hourly Weather Wettingen

    Today, 20 August, Tuesday

    Time Temperature Precipitation Wind Pressure Humidity
    00:00 +16°C° 0.5 mm 0 mps 725 mmHg 92%
    01:00 +16°C° 0.5 mm 0 mps 726 mmHg 93%
    02:00 +15°C° 0.6 mm 0 mps 726 mmHg 94%
    03:00 +15°C° 0.6 mm 0 mps 726 mmHg 95%
    04:00 +15°C° 0.6 mm 0 mps 726 mmHg 96%
    05:00 +15°C° 1.1 mm 0 mps 726 mmHg 97%
    06:00 +15°C° 1.1 mm 0 mps 726 mmHg 97%
    07:00 +15°C° 1.1 mm 0 mps 725 mmHg 98%
    08:00 +16°C° 0.8 mm 1 mps 726 mmHg 98%
    09:00 +16°C° 0.8 mm 1 mps 726 mmHg 97%
    10:00 +16°C° 0.8 mm 1 mps 726 mmHg 97%
    11:00 +16°C° 2.3 mm 1 mps 726 mmHg 97%
    12:00 +16°C° 2.3 mm 1 mps 726 mmHg 97%
    13:00 +15°C° 2.3 mm 2 mps 727 mmHg 97%
    14:00 +15°C° 2 mm 1 mps 727 mmHg 97%
    15:00 +15°C° 2 mm 1 mps 727 mmHg 97%
    16:00 +15°C° 2 mm 1 mps 728 mmHg 97%
    17:00 +15°C° 1.9 mm 1 mps 728 mmHg 97%
    18:00 +14°C° 1.9 mm 1 mps 728 mmHg 97%
    19:00 +13°C° 1.9 mm 0 mps 729 mmHg 98%
    20:00 +13°C° 2.6 mm 0 mps 729 mmHg 98%
    21:00 +13°C° 2.6 mm 0 mps 729 mmHg 98%
    22:00 +13°C° 2.6 mm 0 mps 730 mmHg 98%
    23:00 +13°C° 0.6 mm 0 mps 730 mmHg 98%

    Tomorrow, 21 August, Wednesday

    Time Temperature Precipitation Wind Pressure Humidity
    00:00 +13°C° 0.6 mm 1 mps 730 mmHg 97%
    01:00 +13°C° 0.6 mm 1 mps 730 mmHg 97%
    02:00 +13°C° 0 mm 1 mps 730 mmHg 97%
    03:00 +12°C° 0 mm 1 mps 730 mmHg 97%
    04:00 +11°C° 0 mm 1 mps 730 mmHg 97%
    05:00 +12°C° 0 mm 1 mps 729 mmHg 97%
    06:00 +12°C° 0 mm 1 mps 729 mmHg 97%
    07:00 +12°C° 0 mm 1 mps 729 mmHg 97%
    08:00 +14°C° 0 mm 2 mps 729 mmHg 90%
    09:00 +14°C° 0 mm 3 mps 729 mmHg 83%
    10:00 +17°C° 0 mm 4 mps 729 mmHg 76%
    11:00 +18°C° 0 mm 4 mps 729 mmHg 71%
    12:00 +19°C° 0 mm 4 mps 728 mmHg 67%
    13:00 +20°C° 0 mm 4 mps 728 mmHg 62%
    14:00 +21°C° 0 mm 4 mps 728 mmHg 62%
    15:00 +21°C° 0 mm 4 mps 728 mmHg 62%
    16:00 +22°C° 0 mm 4 mps 728 mmHg 62%
    17:00 +20°C° 0 mm 4 mps 728 mmHg 67%
    18:00 +19°C° 0 mm 3 mps 728 mmHg 73%
    19:00 +18°C° 0 mm 3 mps 728 mmHg 78%
    20:00 +17°C° 0 mm 2 mps 728 mmHg 82%
    21:00 +16°C° 0 mm 2 mps 728 mmHg 87%
    22:00 +15°C° 0 mm 2 mps 728 mmHg 91%
    23:00 +14°C° 0 mm 1 mps 728 mmHg 93%

    Day after tomorrow, 22 August, Thursday

    Time Temperature Precipitation Wind Pressure Humidity
    00:00 +14°C° 0 mm 1 mps 728 mmHg 94%
    01:00 +13°C° 0 mm 1 mps 727 mmHg 95%
    02:00 +13°C° 0 mm 1 mps 727 mmHg 96%
    03:00 +12°C° 0 mm 0 mps 727 mmHg 96%
    04:00 +11°C° 0 mm 0 mps 727 mmHg 97%
    05:00 +12°C° 0 mm 0 mps 727 mmHg 95%
    06:00 +13°C° 0 mm 0 mps 728 mmHg 93%
    07:00 +13°C° 0 mm 0 mps 728 mmHg 92%
    08:00 +16°C° 0 mm 1 mps 728 mmHg 88%
    09:00 +18°C° 0 mm 1 mps 728 mmHg 84%
    10:00 +19°C° 0 mm 1 mps 728 mmHg 79%
    11:00 +20°C° 0 mm 1 mps 728 mmHg 74%
    12:00 +22°C° 0 mm 1 mps 728 mmHg 69%
    13:00 +23°C° 0 mm 1 mps 728 mmHg 64%
    14:00 +24°C° 0 mm 1 mps 728 mmHg 64%
    15:00 +25°C° 0 mm 1 mps 728 mmHg 63%
    16:00 +25°C° 0 mm 2 mps 728 mmHg 62%
    17:00 +24°C° 0 mm 2 mps 728 mmHg 70%
    18:00 +21°C° 0 mm 2 mps 728 mmHg 79%
    19:00 +20°C° 0 mm 2 mps 728 mmHg 87%
    20:00 +20°C° 0 mm 1 mps 728 mmHg 90%
    21:00 +18°C° 0 mm 1 mps 728 mmHg 93%
    22:00 +16°C° 0 mm 1 mps 729 mmHg 95%
    23:00 +16°C° 0 mm 1 mps 728 mmHg 96%

    23 August, Friday

    Time Temperature Precipitation Wind Pressure Humidity
    00:00 +15°C° 0 mm 1 mps 728 mmHg 96%
    01:00 +15°C° 0 mm 1 mps 728 mmHg 96%
    02:00 +15°C° 0 mm 1 mps 728 mmHg 96%
    03:00 +14°C° 0 mm 1 mps 727 mmHg 97%
    04:00 +14°C° 0 mm 1 mps 727 mmHg 97%
    05:00 +15°C° 0 mm 1 mps 727 mmHg 96%
    06:00 +15°C° 0 mm 1 mps 727 mmHg 95%
    07:00 +15°C° 0 mm 1 mps 727 mmHg 94%
    08:00 +18°C° 0 mm 1 mps 728 mmHg 89%
    09:00 +19°C° 0 mm 1 mps 728 mmHg 83%
    10:00 +20°C° 0 mm 1 mps 728 mmHg 78%
    11:00 +21°C° 0 mm 2 mps 728 mmHg 73%
    12:00 +24°C° 0 mm 2 mps 727 mmHg 68%
    13:00 +25°C° 0 mm 2 mps 727 mmHg 63%
    14:00 +26°C° 0 mm 2 mps 727 mmHg 63%
    15:00 +26°C° 0 mm 2 mps 727 mmHg 63%
    16:00 +27°C° 0 mm 2 mps 727 mmHg 62%
    17:00 +25°C° 0 mm 2 mps 727 mmHg 70%
    18:00 +23°C° 0 mm 2 mps 726 mmHg 78%
    19:00 +21°C° 0 mm 2 mps 726 mmHg 86%
    20:00 +21°C° 0 mm 1 mps 726 mmHg 89%
    21:00 +19°C° 0 mm 1 mps 726 mmHg 92%
    22:00 +18°C° 0 mm 1 mps 726 mmHg 95%
    23:00 +18°C° 0 mm 1 mps 726 mmHg 95%

    24 August, Saturday

    Time Temperature Precipitation Wind Pressure Humidity
    00:00 +16°C° 0 mm 1 mps 726 mmHg 95%
    01:00 +15°C° 0 mm 0 mps 726 mmHg 95%
    02:00 +15°C° 0 mm 0 mps 726 mmHg 95%
    03:00 +14°C° 0 mm 0 mps 725 mmHg 95%
    04:00 +14°C° 0 mm 0 mps 725 mmHg 96%
    05:00 +15°C° 0 mm 0 mps 725 mmHg 95%
    06:00 +15°C° 0 mm 0 mps 725 mmHg 93%
    07:00 +16°C° 0 mm 0 mps 725 mmHg 92%
    08:00 +18°C° 0 mm 0 mps 726 mmHg 84%
    09:00 +21°C° 0 mm 0 mps 726 mmHg 75%
    10:00 +24°C° 0 mm 0 mps 726 mmHg 66%
    11:00 +27°C° 0 mm 1 mps 726 mmHg 60%
    12:00 +28°C° 0 mm 1 mps 726 mmHg 53%
    13:00 +30°C° 0 mm 1 mps 726 mmHg 47%
    14:00 +30°C° 0 mm 1 mps 726 mmHg 47%
    15:00 +30°C° 0 mm 1 mps 725 mmHg 46%
    16:00 +30°C° 0 mm 1 mps 725 mmHg 46%
    17:00 +28°C° 0 mm 1 mps 725 mmHg 55%
    18:00 +25°C° 0 mm 1 mps 725 mmHg 65%
    19:00 +23°C° 0 mm 1 mps 725 mmHg 75%
    20:00 +22°C° 0 mm 1 mps 725 mmHg 76%
    21:00 +21°C° 0 mm 1 mps 725 mmHg 78%
    22:00 +20°C° 0 mm 1 mps 725 mmHg 80%
    23:00 +17°C° 0 mm 0 mps 725 mmHg 80%

    25 August, Sunday

    Time Temperature Precipitation Wind Pressure Humidity
    00:00 +17°C° 0 mm 0 mps 725 mmHg 81%
    01:00 +16°C° 0 mm 0 mps 725 mmHg 81%
    02:00 +16°C° 0 mm 0 mps 724 mmHg 82%
    03:00 +16°C° 0 mm 0 mps 724 mmHg 83%
    04:00 +15°C° 0 mm 0 mps 724 mmHg 85%
    05:00 +16°C° 0 mm 0 mps 724 mmHg 84%
    06:00 +17°C° 0 mm 0 mps 724 mmHg 83%
    07:00 +17°C° 0 mm 0 mps 724 mmHg 82%
    08:00 +20°C° 0 mm 0 mps 725 mmHg 74%
    09:00 +22°C° 0 mm 0 mps 725 mmHg 66%
    10:00 +25°C° 0 mm 0 mps 725 mmHg 58%
    11:00 +27°C° 0 mm 0 mps 725 mmHg 52%
    12:00 +28°C° 0 mm 0 mps 725 mmHg 47%
    13:00 +30°C° 0 mm 0 mps 725 mmHg 41%
    14:00 +30°C° 0 mm 0 mps 724 mmHg 41%
    15:00 +29°C° 0 mm 0 mps 724 mmHg 40%
    16:00 +29°C° 0 mm 0 mps 724 mmHg 39%
    17:00 +27°C° 0 mm 0 mps 724 mmHg 48%
    18:00 +24°C° 0 mm 0 mps 724 mmHg 57%
    19:00 +22°C° 0 mm 0 mps 724 mmHg 66%
    20:00 +21°C° 0 mm 0 mps 724 mmHg 67%
    21:00 +20°C° 0 mm 0 mps 724 mmHg 68%
    22:00 +21°C° 0 mm 1 mps 724 mmHg 70%
    23:00 +19°C° 0 mm 0 mps 724 mmHg 72%
    Show more